When you browse on this site, cookies collect data to enhance your experience and personalize the content and advertising you see.
Visit our Privacy Policy to learn more. By continuing to use the site, you agree to this use of cookies and data.
  • în România
  • Lista ţărilor
  • Pe 7 zile
  • Temperatura apei
  • Hartă satelitară
  • Meteo pe hartă
  • Widget-uri
  • user-avatar
    Intrare

    Meteo pe oră la Saint-Maur-des-Fosses

    Astăzi, 20 Iunie, Joi

    Timp Temperatura Precipitaţii Vânt Presiune Umiditate
    00:00 +17°C° 0 mm 2 m/s 755 mmHg 83%
    01:00 +18°C° 0.2 mm 1 m/s 755 mmHg 83%
    02:00 +18°C° 0.2 mm 1 m/s 755 mmHg 83%
    03:00 +18°C° 0.2 mm 1 m/s 755 mmHg 84%
    04:00 +18°C° 0.1 mm 1 m/s 755 mmHg 84%
    05:00 +17°C° 0.1 mm 2 m/s 756 mmHg 84%
    06:00 +17°C° 0.1 mm 2 m/s 756 mmHg 84%
    07:00 +17°C° 0.2 mm 2 m/s 756 mmHg 83%
    08:00 +17°C° 0.2 mm 2 m/s 757 mmHg 83%
    09:00 +17°C° 0.2 mm 2 m/s 757 mmHg 82%
    10:00 +18°C° 0.1 mm 2 m/s 757 mmHg 74%
    11:00 +20°C° 0.1 mm 2 m/s 757 mmHg 66%
    12:00 +21°C° 0.1 mm 3 m/s 757 mmHg 58%
    13:00 +21°C° 0 mm 3 m/s 757 mmHg 55%
    14:00 +22°C° 0 mm 3 m/s 757 mmHg 52%
    15:00 +22°C° 0 mm 4 m/s 757 mmHg 49%
    16:00 +22°C° 0 mm 3 m/s 758 mmHg 51%
    17:00 +21°C° 0 mm 3 m/s 758 mmHg 54%
    18:00 +21°C° 0 mm 3 m/s 758 mmHg 57%
    19:00 +19°C° 0 mm 3 m/s 758 mmHg 61%
    20:00 +18°C° 0 mm 2 m/s 759 mmHg 64%
    21:00 +17°C° 0 mm 2 m/s 759 mmHg 68%
    22:00 +16°C° 0 mm 2 m/s 759 mmHg 72%
    23:00 +16°C° 0 mm 2 m/s 760 mmHg 75%

    Mâine, 21 Iunie, Vineri

    Timp Temperatura Precipitaţii Vânt Presiune Umiditate
    00:00 +15°C° 0 mm 2 m/s 760 mmHg 78%
    01:00 +14°C° 0 mm 1 m/s 760 mmHg 79%
    02:00 +14°C° 0 mm 1 m/s 760 mmHg 79%
    03:00 +13°C° 0 mm 1 m/s 760 mmHg 80%
    04:00 +14°C° 0 mm 1 m/s 760 mmHg 77%
    05:00 +15°C° 0 mm 1 m/s 761 mmHg 75%
    06:00 +15°C° 0 mm 1 m/s 761 mmHg 73%
    07:00 +18°C° 0 mm 1 m/s 761 mmHg 66%
    08:00 +19°C° 0 mm 1 m/s 761 mmHg 60%
    09:00 +21°C° 0 mm 1 m/s 761 mmHg 54%
    10:00 +22°C° 0 mm 1 m/s 761 mmHg 51%
    11:00 +23°C° 0 mm 1 m/s 761 mmHg 47%
    12:00 +23°C° 0 mm 1 m/s 761 mmHg 44%
    13:00 +24°C° 0 mm 2 m/s 761 mmHg 45%
    14:00 +24°C° 0 mm 3 m/s 761 mmHg 46%
    15:00 +24°C° 0 mm 3 m/s 761 mmHg 46%
    16:00 +22°C° 0 mm 3 m/s 761 mmHg 52%
    17:00 +21°C° 0 mm 3 m/s 761 mmHg 57%
    18:00 +20°C° 0 mm 3 m/s 761 mmHg 62%
    19:00 +19°C° 0 mm 3 m/s 761 mmHg 66%
    20:00 +17°C° 0 mm 3 m/s 761 mmHg 70%
    21:00 +16°C° 0 mm 3 m/s 762 mmHg 74%
    22:00 +14°C° 0 mm 3 m/s 762 mmHg 74%
    23:00 +14°C° 0 mm 3 m/s 762 mmHg 73%

    Poimâine, 22 Iunie, Sâmbătă

    Timp Temperatura Precipitaţii Vânt Presiune Umiditate
    00:00 +13°C° 0 mm 3 m/s 761 mmHg 73%
    01:00 +13°C° 0 mm 3 m/s 761 mmHg 76%
    02:00 +12°C° 0 mm 3 m/s 761 mmHg 80%
    03:00 +12°C° 0 mm 3 m/s 761 mmHg 83%
    04:00 +12°C° 0 mm 3 m/s 761 mmHg 81%
    05:00 +13°C° 0 mm 3 m/s 761 mmHg 80%
    06:00 +14°C° 0 mm 3 m/s 761 mmHg 78%
    07:00 +17°C° 0 mm 3 m/s 761 mmHg 72%
    08:00 +19°C° 0 mm 3 m/s 761 mmHg 66%
    09:00 +20°C° 0 mm 3 m/s 761 mmHg 60%
    10:00 +22°C° 0 mm 3 m/s 760 mmHg 58%
    11:00 +24°C° 0 mm 3 m/s 760 mmHg 55%
    12:00 +25°C° 0 mm 4 m/s 760 mmHg 53%
    13:00 +25°C° 0.1 mm 4 m/s 760 mmHg 54%
    14:00 +25°C° 0.1 mm 4 m/s 759 mmHg 55%
    15:00 +26°C° 0.1 mm 4 m/s 759 mmHg 56%
    16:00 +25°C° 0 mm 3 m/s 759 mmHg 59%
    17:00 +25°C° 0 mm 3 m/s 759 mmHg 61%
    18:00 +24°C° 0 mm 2 m/s 759 mmHg 64%
    19:00 +23°C° 0 mm 2 m/s 759 mmHg 68%
    20:00 +21°C° 0 mm 2 m/s 759 mmHg 72%
    21:00 +20°C° 0 mm 2 m/s 759 mmHg 76%
    22:00 +20°C° 0 mm 2 m/s 759 mmHg 78%
    23:00 +19°C° 0 mm 2 m/s 759 mmHg 80%

    23 Iunie, Duminică

    Timp Temperatura Precipitaţii Vânt Presiune Umiditate
    00:00 +19°C° 0 mm 2 m/s 759 mmHg 82%
    01:00 +18°C° 0 mm 2 m/s 759 mmHg 83%
    02:00 +18°C° 0 mm 2 m/s 759 mmHg 83%
    03:00 +17°C° 0 mm 2 m/s 758 mmHg 84%
    04:00 +18°C° 0 mm 2 m/s 759 mmHg 83%
    05:00 +18°C° 0 mm 2 m/s 759 mmHg 82%
    06:00 +18°C° 0 mm 2 m/s 759 mmHg 82%
    07:00 +20°C° 0 mm 3 m/s 759 mmHg 77%
    08:00 +22°C° 0 mm 3 m/s 759 mmHg 72%
    09:00 +24°C° 0 mm 3 m/s 759 mmHg 68%
    10:00 +25°C° 0 mm 4 m/s 759 mmHg 64%
    11:00 +26°C° 0 mm 4 m/s 759 mmHg 61%
    12:00 +27°C° 0 mm 4 m/s 759 mmHg 58%
    13:00 +28°C° 0 mm 4 m/s 758 mmHg 59%
    14:00 +28°C° 0 mm 4 m/s 758 mmHg 59%
    15:00 +28°C° 0 mm 4 m/s 758 mmHg 59%
    16:00 +28°C° 0 mm 4 m/s 758 mmHg 63%
    17:00 +27°C° 0 mm 4 m/s 757 mmHg 66%
    18:00 +27°C° 0 mm 3 m/s 757 mmHg 70%
    19:00 +26°C° 0 mm 3 m/s 758 mmHg 74%
    20:00 +25°C° 0 mm 3 m/s 758 mmHg 79%
    21:00 +24°C° 0 mm 3 m/s 758 mmHg 84%
    22:00 +22°C° 0 mm 3 m/s 758 mmHg 85%
    23:00 +22°C° 0 mm 3 m/s 758 mmHg 86%

    24 Iunie, Luni

    Timp Temperatura Precipitaţii Vânt Presiune Umiditate
    00:00 +21°C° 0 mm 2 m/s 758 mmHg 88%
    01:00 +21°C° 0 mm 2 m/s 758 mmHg 88%
    02:00 +20°C° 0 mm 2 m/s 758 mmHg 89%
    03:00 +20°C° 0 mm 2 m/s 758 mmHg 89%
    04:00 +20°C° 0 mm 2 m/s 758 mmHg 87%
    05:00 +21°C° 0 mm 2 m/s 758 mmHg 84%
    06:00 +21°C° 0 mm 2 m/s 758 mmHg 82%
    07:00 +24°C° 0 mm 2 m/s 758 mmHg 75%
    08:00 +26°C° 0 mm 3 m/s 758 mmHg 69%
    09:00 +28°C° 0 mm 3 m/s 758 mmHg 63%
    10:00 +29°C° 0 mm 3 m/s 758 mmHg 59%
    11:00 +31°C° 0 mm 3 m/s 758 mmHg 55%
    12:00 +33°C° 0 mm 4 m/s 758 mmHg 52%
    13:00 +33°C° 0 mm 4 m/s 758 mmHg 52%
    14:00 +34°C° 0 mm 4 m/s 758 mmHg 53%
    15:00 +34°C° 0 mm 5 m/s 757 mmHg 54%
    16:00 +33°C° 0 mm 4 m/s 757 mmHg 58%
    17:00 +33°C° 0 mm 4 m/s 757 mmHg 62%
    18:00 +32°C° 0 mm 4 m/s 757 mmHg 67%
    19:00 +30°C° 0 mm 4 m/s 757 mmHg 72%
    20:00 +28°C° 0 mm 4 m/s 757 mmHg 76%
    21:00 +27°C° 0 mm 4 m/s 758 mmHg 81%
    22:00 +26°C° 0 mm 4 m/s 758 mmHg 82%
    23:00 +26°C° 0 mm 3 m/s 757 mmHg 83%

    25 Iunie, Marţi

    Timp Temperatura Precipitaţii Vânt Presiune Umiditate
    00:00 +25°C° 0 mm 3 m/s 757 mmHg 83%
    01:00 +25°C° 0 mm 3 m/s 757 mmHg 83%
    02:00 +24°C° 0 mm 3 m/s 757 mmHg 83%
    03:00 +23°C° 0 mm 2 m/s 757 mmHg 83%
    04:00 +24°C° 0 mm 2 m/s 757 mmHg 81%
    05:00 +24°C° 0 mm 2 m/s 758 mmHg 78%
    06:00 +25°C° 0 mm 2 m/s 758 mmHg 76%
    07:00 +26°C° 0 mm 2 m/s 758 mmHg 71%
    08:00 +28°C° 0 mm 2 m/s 759 mmHg 67%
    09:00 +30°C° 0 mm 2 m/s 759 mmHg 63%
    10:00 +31°C° 0 mm 2 m/s 759 mmHg 58%
    11:00 +34°C° 0 mm 2 m/s 759 mmHg 53%
    12:00 +35°C° 0 mm 2 m/s 760 mmHg 49%
    13:00 +36°C° 0 mm 2 m/s 760 mmHg 48%
    14:00 +36°C° 0 mm 2 m/s 760 mmHg 47%
    15:00 +36°C° 0 mm 2 m/s 760 mmHg 46%
    16:00 +35°C° 0 mm 2 m/s 760 mmHg 49%
    17:00 +34°C° 0 mm 2 m/s 760 mmHg 52%
    18:00 +34°C° 0 mm 2 m/s 760 mmHg 55%
    19:00 +31°C° 0 mm 2 m/s 760 mmHg 58%
    20:00 +30°C° 0 mm 1 m/s 761 mmHg 61%
    21:00 +28°C° 0 mm 1 m/s 761 mmHg 64%
    22:00 +28°C° 0 mm 1 m/s 761 mmHg 68%
    23:00 +27°C° 0 mm 1 m/s 761 mmHg 72%
    Arată mai mult